| time (UTC) | temp F | wind direction | speed MPH | gust MPH | rain 1hr in | rain 24hr in | rain mn in | humidity % | barometer mb |
| 20260904005556 | 64 | 23 | 0.0 | 0.0 | 0.00 | 0.53 | 0.00 | 83 | 1021.0 |
| 20260904005055 | 64 | 23 | 0.0 | 0.0 | 0.00 | 0.53 | 0.00 | 83 | 1021.0 |
| 20260904004555 | 64 | 23 | 0.0 | 0.0 | 0.00 | 0.53 | 0.00 | 83 | 1021.1 |
| 20260904004055 | 64 | 23 | 0.0 | 0.0 | 0.00 | 0.53 | 0.00 | 83 | 1021.1 |
| 20260904003555 | 64 | 23 | 0.0 | 0.0 | 0.00 | 0.53 | 0.00 | 83 | 1021.1 |
| 20260904003056 | 64 | 23 | 0.0 | 0.0 | 0.00 | 0.61 | 0.00 | 83 | 1021.3 |
| 20260904002556 | 64 | 23 | 0.0 | 0.0 | 0.00 | 0.61 | 0.00 | 83 | 1021.2 |
| 20260904002055 | 64 | 23 | 0.0 | 0.0 | 0.00 | 0.61 | 0.00 | 83 | 1021.2 |
| 20260904001555 | 64 | 23 | 0.0 | 0.0 | 0.00 | 0.61 | 0.00 | 83 | 1021.3 |
| 20260904001055 | 64 | 23 | 0.0 | 0.0 | 0.00 | 0.61 | 0.00 | 83 | 1021.4 |
| 20260904000556 | 64 | 23 | 0.0 | 0.0 | 0.00 | 0.61 | 0.00 | 83 | 1021.3 |
| 20260904000055 | 64 | 23 | 0.0 | 0.0 | 0.00 | 0.61 | 0.00 | 83 | 1021.3 |
| 20260903235556 | 64 | 23 | 0.0 | 0.0 | 0.00 | 0.61 | 0.00 | 83 | 1021.3 |
| 20260903235056 | 64 | 23 | 0.0 | 0.0 | 0.00 | 0.61 | 0.00 | 83 | 1021.3 |
| 20260903234556 | 64 | 23 | 0.0 | 0.0 | 0.00 | 0.61 | 0.00 | 83 | 1021.2 |
| 20260903234056 | 64 | 23 | 0.0 | 0.0 | 0.00 | 0.61 | 0.00 | 82 | 1021.2 |
| 20260903233556 | 64 | 23 | 0.0 | 0.0 | 0.00 | 0.61 | 0.00 | 82 | 1021.2 |
| 20260903232556 | 64 | 23 | 0.0 | 0.0 | 0.00 | 0.77 | 0.00 | 82 | 1021.1 |
| 20260903232056 | 64 | 23 | 0.0 | 0.0 | 0.00 | 0.77 | 0.00 | 82 | 1021.2 |
| 20260903231556 | 64 | 23 | 0.0 | 0.0 | 0.00 | 0.77 | 0.00 | 82 | 1021.2 |
| 20260903231056 | 64 | 23 | 0.0 | 0.0 | 0.00 | 0.77 | 0.00 | 82 | 1021.2 |
| 20260903230556 | 64 | 23 | 0.0 | 0.0 | 0.00 | 0.77 | 0.00 | 82 | 1021.2 |
| 20260903230056 | 64 | 23 | 0.0 | 0.0 | 0.00 | 0.77 | 0.00 | 82 | 1021.1 |
| 20260903225556 | 64 | 23 | 0.0 | 0.0 | 0.00 | 0.77 | 0.00 | 81 | 1021.0 |
| 20260903225056 | 64 | 23 | 0.0 | 0.0 | 0.00 | 0.77 | 0.00 | 81 | 1021.0 |
| 20260903224557 | 64 | 23 | 0.0 | 0.0 | 0.00 | 0.77 | 0.00 | 81 | 1021.1 |
| 20260903224057 | 64 | 23 | 0.0 | 0.0 | 0.00 | 0.77 | 0.00 | 81 | 1021.0 |
| 20260903223557 | 64 | 23 | 0.0 | 0.0 | 0.00 | 0.77 | 0.00 | 81 | 1021.0 |
| 20260903223057 | 64 | 23 | 0.0 | 0.0 | 0.00 | 0.98 | 0.00 | 80 | 1020.9 |
| 20260903222557 | 64 | 23 | 0.0 | 0.0 | 0.00 | 0.98 | 0.00 | 80 | 1020.9 |
| 20260903222057 | 64 | 23 | 0.0 | 0.0 | 0.00 | 0.98 | 0.00 | 80 | 1020.8 |
| 20260903221557 | 64 | 23 | 0.0 | 0.0 | 0.00 | 0.98 | 0.00 | 80 | 1020.8 |
| 20260903221058 | 64 | 23 | 0.0 | 0.0 | 0.00 | 0.98 | 0.00 | 80 | 1020.9 |
| 20260903220559 | 64 | 23 | 0.0 | 0.0 | 0.00 | 0.98 | 0.00 | 80 | 1020.6 |
| 20260903220057 | 64 | 23 | 0.0 | 0.0 | 0.00 | 0.98 | 0.00 | 80 | 1020.6 |
| 20260903215557 | 64 | 23 | 0.0 | 0.0 | 0.00 | 0.98 | 0.00 | 80 | 1020.8 |
| 20260903215057 | 65 | 23 | 0.0 | 0.0 | 0.00 | 0.98 | 0.00 | 79 | 1020.7 |
| 20260903214557 | 65 | 23 | 0.0 | 0.0 | 0.00 | 0.98 | 0.00 | 79 | 1020.9 |
| 20260903214057 | 65 | 23 | 0.0 | 0.0 | 0.00 | 0.98 | 0.00 | 79 | 1020.9 |
| 20260903213557 | 65 | 23 | 0.0 | 0.0 | 0.00 | 0.98 | 0.00 | 79 | 1020.8 |
| 20260903213057 | 65 | 23 | 0.0 | 0.0 | 0.00 | 1.37 | 0.00 | 79 | 1020.7 |
| 20260903212558 | 65 | 23 | 0.0 | 0.0 | 0.00 | 1.37 | 0.00 | 79 | 1020.8 |
| 20260903212059 | 65 | 23 | 0.0 | 0.0 | 0.00 | 1.37 | 0.00 | 79 | 1020.7 |
| 20260903211558 | 65 | 23 | 0.0 | 0.0 | 0.00 | 1.37 | 0.00 | 79 | 1020.7 |
| 20260903211058 | 65 | 23 | 0.0 | 0.0 | 0.00 | 1.37 | 0.00 | 79 | 1020.5 |
| 20260903210600 | 64 | 45 | 0.0 | 0.0 | 0.00 | 1.37 | 0.00 | 79 | 1020.6 |
| 20260903210058 | 64 | 45 | 0.0 | 0.0 | 0.00 | 1.37 | 0.00 | 79 | 1020.5 |
| 20260903205558 | 64 | 45 | 0.0 | 0.0 | 0.00 | 1.37 | 0.00 | 79 | 1020.6 |
| 20260903205059 | 64 | 90 | 0.0 | 0.0 | 0.00 | 1.37 | 0.00 | 78 | 1020.3 |
| 20260903204558 | 64 | 90 | 0.0 | 0.0 | 0.00 | 1.37 | 0.00 | 78 | 1020.4 |
| 20260903204058 | 64 | 90 | 0.0 | 0.0 | 0.00 | 1.37 | 0.00 | 78 | 1020.3 |
| 20260903202058 | 64 | 90 | 0.0 | 0.0 | 0.00 | 1.59 | 0.00 | 77 | 1020.2 |
| 20260903201558 | 64 | 135 | 0.0 | 0.0 | 0.00 | 1.59 | 0.00 | 77 | 1020.1 |
| 20260903201058 | 64 | 135 | 0.0 | 0.0 | 0.00 | 1.59 | 0.00 | 77 | 1020.0 |
| 20260903200059 | 64 | 135 | 0.0 | 0.0 | 0.00 | 1.59 | 0.00 | 76 | 1020.0 |
| 20260903195558 | 64 | 135 | 0.0 | 0.0 | 0.00 | 1.59 | 0.00 | 75 | 1019.8 |
| 20260903195059 | 64 | 135 | 0.0 | 0.0 | 0.00 | 1.59 | 0.00 | 75 | 1020.1 |
| 20260903194558 | 64 | 135 | 0.0 | 0.0 | 0.00 | 1.59 | 0.00 | 74 | 1020.0 |
| 20260903194058 | 64 | 135 | 0.0 | 0.0 | 0.00 | 1.59 | 0.00 | 74 | 1020.1 |
| 20260903193559 | 64 | 135 | 0.0 | 0.0 | 0.00 | 1.59 | 0.00 | 74 | 1020.0 |
| 20260903193059 | 65 | 135 | 0.0 | 0.0 | 0.00 | 1.59 | 0.00 | 74 | 1019.8 |
| 20260903192559 | 65 | 135 | 0.0 | 0.0 | 0.00 | 1.59 | 0.00 | 73 | 1020.0 |
| 20260903192059 | 65 | 135 | 0.0 | 0.0 | 0.00 | 1.59 | 0.00 | 73 | 1019.9 |
| 20260903191059 | 65 | 135 | 0.0 | 0.0 | 0.00 | 1.59 | 0.00 | 72 | 1019.7 |
| 20260903190059 | 66 | 135 | 0.0 | 0.0 | 0.00 | 1.59 | 0.00 | 71 | 1019.7 |
| 20260903185559 | 66 | 135 | 0.0 | 0.0 | 0.00 | 1.59 | 0.00 | 71 | 1019.7 |
| 20260903185059 | 67 | 135 | 0.0 | 0.0 | 0.00 | 1.59 | 0.00 | 71 | 1019.5 |
| 20260903184559 | 67 | 135 | 0.0 | 0.0 | 0.00 | 1.59 | 0.00 | 70 | 1019.4 |
| 20260903184059 | 67 | 135 | 0.0 | 0.0 | 0.00 | 1.59 | 0.00 | 69 | 1019.5 |
| 20260903183559 | 67 | 135 | 0.0 | 0.0 | 0.00 | 1.59 | 0.00 | 68 | 1019.4 |
| 20260903183059 | 68 | 135 | 0.0 | 0.0 | 0.00 | 1.59 | 0.00 | 67 | 1019.6 |
| 20260903182600 | 68 | 135 | 0.0 | 0.0 | 0.00 | 1.59 | 0.00 | 66 | 1019.4 |
| 20260903181559 | 69 | 135 | 0.0 | 0.0 | 0.00 | 1.59 | 0.00 | 65 | 1019.5 |
| 20260903180100 | 70 | 135 | 0.0 | 0.0 | 0.00 | 1.59 | 0.00 | 64 | 1019.2 |
| 20260903175100 | 71 | 135 | 0.0 | 0.0 | 0.00 | 1.59 | 0.00 | 63 | 1019.3 |
| 20260903174601 | 72 | 135 | 0.0 | 0.0 | 0.00 | 1.59 | 0.00 | 62 | 1019.3 |
| 20260903174100 | 72 | 135 | 0.0 | 0.0 | 0.00 | 1.59 | 0.00 | 62 | 1019.3 |
| 20260903173600 | 73 | 135 | 0.0 | 0.0 | 0.00 | 1.59 | 0.00 | 61 | 1019.3 |
| 20260903173100 | 73 | 135 | 0.0 | 0.0 | 0.00 | 1.59 | 0.00 | 60 | 1019.4 |
| 20260903172100 | 74 | 135 | 0.0 | 0.0 | 0.00 | 1.59 | 0.00 | 59 | 1019.3 |
| 20260903171100 | 75 | 135 | 0.0 | 0.0 | 0.00 | 1.59 | 0.00 | 57 | 1019.1 |
| 20260903170603 | 76 | 135 | 0.0 | 0.0 | 0.00 | 1.59 | 0.00 | 56 | 1019.1 |
| 20260903165600 | 76 | 135 | 0.0 | 0.0 | 0.00 | 1.59 | 0.00 | 54 | 1019.3 |
| 20260903165101 | 77 | 135 | 0.0 | 0.0 | 0.00 | 1.59 | 0.00 | 53 | 1019.2 |
| 20260903164600 | 77 | 135 | 0.0 | 0.0 | 0.00 | 1.59 | 0.00 | 53 | 1019.3 |
| 20260903164101 | 78 | 135 | 0.0 | 0.0 | 0.00 | 1.59 | 0.00 | 52 | 1019.2 |
| 20260903162101 | 80 | 135 | 0.0 | 0.0 | 0.00 | 1.59 | 0.00 | 48 | 1019.1 |
| 20260903161601 | 81 | 135 | 0.0 | 0.0 | 0.00 | 1.59 | 0.00 | 48 | 1019.2 |
| 20260903161101 | 81 | 158 | 0.0 | 0.0 | 0.00 | 1.59 | 0.00 | 47 | 1019.2 |
| 20260903155601 | 82 | 135 | 0.0 | 0.0 | 0.00 | 1.59 | 0.00 | 46 | 1019.5 |
| 20260903155101 | 83 | 158 | 0.0 | 0.0 | 0.00 | 1.59 | 0.00 | 45 | 1019.3 |
| 20260903154601 | 83 | 158 | 0.0 | 0.0 | 0.00 | 1.59 | 0.00 | 45 | 1019.5 |
| 20260903154101 | 83 | 45 | 0.0 | 0.0 | 0.00 | 1.59 | 0.00 | 44 | 1019.4 |
| 20260903153601 | 83 | 45 | 0.0 | 0.0 | 0.00 | 1.59 | 0.00 | 43 | 1019.6 |
| 20260903153101 | 84 | 45 | 0.0 | 0.0 | 0.00 | 1.75 | 0.00 | 43 | 1019.6 |
| 20260903152601 | 84 | 135 | 1.0 | 3.0 | 0.00 | 1.75 | 0.00 | 43 | 1019.5 |
| 20260903152101 | 84 | 158 | 1.0 | 3.0 | 0.00 | 1.75 | 0.00 | 44 | 1019.6 |
| 20260903151601 | 84 | 68 | 0.0 | 0.0 | 0.00 | 1.75 | 0.00 | 43 | 1019.6 |
| 20260903151101 | 84 | 135 | 0.0 | 0.0 | 0.00 | 1.75 | 0.00 | 43 | 1019.5 |
| 20260903145602 | 86 | 45 | 0.0 | 0.0 | 0.00 | 1.75 | 0.00 | 42 | 1019.6 |
| 20260903145102 | 86 | 113 | 0.0 | 0.0 | 0.00 | 1.75 | 0.00 | 42 | 1019.5 |
| 20260903144602 | 87 | 135 | 0.0 | 0.0 | 0.00 | 1.75 | 0.00 | 42 | 1019.7 |
| 20260903144102 | 87 | 135 | 0.0 | 0.0 | 0.00 | 1.75 | 0.00 | 42 | 1019.4 |
| 20260903143102 | 88 | 113 | 0.0 | 0.0 | 0.00 | 2.06 | 0.00 | 41 | 1019.7 |
| 20260903142602 | 88 | 45 | 0.0 | 0.0 | 0.00 | 2.06 | 0.00 | 42 | 1019.6 |
| 20260903142105 | 88 | 45 | 0.0 | 0.0 | 0.00 | 2.06 | 0.00 | 41 | 1019.7 |
| 20260903141602 | 88 | 135 | 0.0 | 0.0 | 0.00 | 2.06 | 0.00 | 41 | 1019.9 |
| 20260903141102 | 88 | 135 | 0.0 | 0.0 | 0.00 | 2.06 | 0.00 | 42 | 1019.7 |
| 20260903135604 | 88 | 135 | 0.0 | 2.0 | 0.00 | 2.06 | 0.00 | 41 | 1020.0 |
| 20260903134602 | 88 | 68 | 0.0 | 0.0 | 0.00 | 2.06 | 0.00 | 41 | 1020.1 |
| 20260903134102 | 89 | 135 | 0.0 | 0.0 | 0.00 | 2.06 | 0.00 | 38 | 1020.0 |
| 20260903133103 | 90 | 135 | 1.0 | 3.0 | 0.00 | 2.12 | 0.00 | 39 | 1020.1 |
| 20260903132603 | 90 | 45 | 1.0 | 3.0 | 0.00 | 2.12 | 0.00 | 39 | 1020.0 |
| 20260903132103 | 91 | 45 | 0.0 | 0.0 | 0.00 | 2.12 | 0.00 | 38 | 1020.0 |
| 20260903131603 | 91 | 23 | 0.0 | 0.0 | 0.00 | 2.12 | 0.00 | 39 | 1019.9 |
| 20260903131104 | 91 | 68 | 0.0 | 0.0 | 0.00 | 2.12 | 0.00 | 39 | 1020.0 |
| 20260903130609 | 91 | 180 | 0.0 | 0.0 | 0.00 | 2.12 | 0.00 | 39 | 1020.2 |
| 20260903124603 | 91 | 158 | 2.0 | 6.0 | 0.02 | 2.12 | 0.00 | 38 | 1020.2 |
| 20260903124103 | 91 | 23 | 0.0 | 6.0 | 0.02 | 2.12 | 0.00 | 37 | 1020.2 |
| 20260903123603 | 92 | 23 | 0.0 | 2.0 | 0.02 | 2.12 | 0.00 | 38 | 1020.1 |
| 20260903122603 | 93 | 158 | 1.0 | 4.0 | 0.02 | 2.45 | 0.00 | 39 | 1020.2 |
| 20260903121605 | 93 | 158 | 1.0 | 3.0 | 0.04 | 2.45 | 0.00 | 38 | 1020.2 |
| 20260903121103 | 94 | 45 | 0.0 | 0.0 | 0.04 | 2.45 | 0.00 | 38 | 1020.2 |
| 20260903120104 | 95 | 135 | 1.0 | 3.0 | 0.04 | 2.45 | 0.00 | 39 | 1020.5 |
| 20260903115604 | 95 | 180 | 0.0 | 3.0 | 0.04 | 2.45 | 0.00 | 40 | 1020.2 |
| 20260903115104 | 95 | 180 | 0.0 | 0.0 | 0.06 | 2.43 | 0.00 | 39 | 1020.4 |
| 20260903114604 | 95 | 23 | 1.0 | 3.0 | 0.06 | 2.43 | 0.00 | 40 | 1020.3 |
| 20260903114104 | 96 | 23 | 2.0 | 5.0 | 0.06 | 2.43 | 0.00 | 39 | 1020.3 |
| 20260903113604 | 96 | 158 | 1.0 | 5.0 | 0.06 | 2.43 | 0.00 | 39 | 1020.2 |
| 20260903113104 | 96 | 158 | 1.0 | 4.0 | 0.06 | 3.35 | 0.00 | 41 | 1020.3 |
| 20260903112605 | 95 | 135 | 1.0 | 4.0 | 0.06 | 3.35 | 0.00 | 42 | 1020.4 |
| 20260903112104 | 94 | 158 | 1.0 | 3.0 | 0.04 | 3.33 | 0.00 | 44 | 1020.5 |
| 20260903111604 | 92 | 158 | 1.0 | 5.0 | 0.04 | 3.33 | 0.00 | 43 | 1020.5 |
| 20260903111105 | 92 | 135 | 3.0 | 5.0 | 0.04 | 3.33 | 0.00 | 44 | 1020.6 |
| 20260903110104 | 92 | 158 | 5.0 | 7.0 | 0.06 | 3.33 | 0.00 | 44 | 1020.8 |
| 20260903105605 | 91 | 158 | 4.0 | 7.0 | 0.06 | 3.33 | 0.00 | 45 | 1021.0 |
| 20260903105105 | 91 | 158 | 4.0 | 6.0 | 0.04 | 3.28 | 0.00 | 44 | 1020.9 |
| 20260903104604 | 92 | 180 | 0.0 | 3.0 | 0.04 | 3.28 | 0.00 | 44 | 1021.0 |
| 20260903104105 | 90 | 135 | 0.0 | 2.0 | 0.04 | 3.28 | 0.00 | 47 | 1021.1 |
| 20260903103605 | 89 | 135 | 1.0 | 2.0 | 0.04 | 3.28 | 0.00 | 48 | 1021.0 |
| 20260903103105 | 88 | 135 | 2.0 | 3.0 | 0.04 | 4.18 | 0.00 | 51 | 1021.0 |
| 20260903102605 | 86 | 158 | 1.0 | 3.0 | 0.06 | 4.18 | 0.00 | 51 | 1021.2 |
| 20260903102105 | 85 | 23 | 1.0 | 3.0 | 0.06 | 4.18 | 0.00 | 50 | 1021.2 |
| 20260903101605 | 85 | 23 | 0.0 | 0.0 | 0.12 | 4.18 | 0.00 | 50 | 1021.3 |
| 20260903101105 | 85 | 23 | 0.0 | 0.0 | 0.12 | 4.18 | 0.00 | 52 | 1021.3 |
| 20260903100105 | 83 | 45 | 0.0 | 0.0 | 0.12 | 4.16 | 0.00 | 56 | 1021.5 |
| 20260903095605 | 82 | 45 | 0.0 | 0.0 | 0.12 | 4.16 | 0.00 | 56 | 1021.7 |
| 20260903095106 | 82 | 45 | 0.0 | 0.0 | 0.12 | 4.14 | 0.00 | 56 | 1021.6 |
| 20260903094605 | 82 | 45 | 0.0 | 0.0 | 0.12 | 4.14 | 0.00 | 56 | 1021.7 |
| 20260903094105 | 82 | 45 | 0.0 | 0.0 | 0.12 | 4.14 | 0.00 | 57 | 1021.8 |
| 20260903093605 | 81 | 135 | 0.0 | 0.0 | 0.12 | 4.14 | 0.00 | 59 | 1021.9 |
| 20260903093105 | 80 | 135 | 0.0 | 0.0 | 0.12 | 4.45 | 0.00 | 60 | 1021.9 |
| 20260903092606 | 80 | 135 | 0.0 | 0.0 | 0.12 | 4.43 | 0.00 | 60 | 1022.0 |
| 20260903092105 | 81 | 135 | 0.0 | 0.0 | 0.06 | 4.37 | 0.00 | 61 | 1021.9 |
| 20260903091605 | 80 | 23 | 0.0 | 0.0 | 0.06 | 4.37 | 0.00 | 63 | 1022.2 |
| 20260903091105 | 80 | 23 | 0.0 | 0.0 | 0.06 | 4.37 | 0.00 | 63 | 1021.9 |
| 20260903090608 | 79 | 23 | 0.0 | 0.0 | 0.06 | 4.37 | 0.00 | 63 | 1022.1 |
| 20260903090105 | 80 | 23 | 0.0 | 0.0 | 0.04 | 4.35 | 0.00 | 64 | 1022.3 |
| 20260903085606 | 79 | 45 | 0.0 | 0.0 | 0.04 | 4.35 | 0.00 | 66 | 1022.3 |
| 20260903085106 | 79 | 135 | 0.0 | 0.0 | 0.02 | 4.33 | 0.00 | 66 | 1022.2 |
| 20260903084606 | 78 | 135 | 0.0 | 0.0 | 0.02 | 4.33 | 0.00 | 66 | 1022.3 |
| 20260903083606 | 78 | 23 | 0.0 | 0.0 | 0.06 | 4.33 | 0.00 | 69 | 1022.3 |
| 20260903083106 | 77 | 23 | 0.0 | 0.0 | 0.06 | 4.61 | 0.00 | 69 | 1022.4 |
| 20260903082607 | 76 | 23 | 0.0 | 0.0 | 0.04 | 4.59 | 0.00 | 72 | 1022.4 |
| 20260903082106 | 75 | 23 | 2.0 | 4.0 | 0.06 | 4.59 | 0.00 | 72 | 1022.3 |
| 20260903081606 | 74 | 23 | 5.0 | 5.0 | 0.06 | 4.59 | 0.00 | 74 | 1022.4 |
| 20260903081106 | 73 | 23 | 4.0 | 5.0 | 0.06 | 4.59 | 0.00 | 75 | 1022.4 |
| 20260903080609 | 72 | 23 | 1.0 | 4.0 | 0.06 | 4.59 | 0.00 | 76 | 1022.4 |
| 20260903080107 | 72 | 23 | 0.0 | 3.0 | 0.08 | 4.59 | 0.00 | 75 | 1022.3 |
| 20260903075606 | 72 | 23 | 1.0 | 3.0 | 0.08 | 4.59 | 0.00 | 75 | 1022.3 |
| 20260903075107 | 73 | 23 | 0.0 | 0.0 | 0.12 | 4.59 | 0.00 | 76 | 1022.3 |
| 20260903074606 | 73 | 23 | 0.0 | 0.0 | 0.12 | 4.59 | 0.00 | 76 | 1022.2 |
| 20260903074107 | 72 | 23 | 0.0 | 0.0 | 0.12 | 4.59 | 0.00 | 77 | 1022.2 |
| 20260903073609 | 72 | 23 | 2.0 | 4.0 | 0.10 | 4.55 | 0.00 | 78 | 1022.3 |
| 20260903073107 | 71 | 23 | 3.0 | 4.0 | 0.10 | 5.04 | 0.00 | 78 | 1022.3 |
| 20260903072607 | 71 | 23 | 1.0 | 5.0 | 0.12 | 5.04 | 0.00 | 80 | 1022.4 |
| 20260903072106 | 70 | 23 | 1.0 | 5.0 | 0.10 | 5.02 | 0.00 | 80 | 1022.5 |
| 20260903070610 | 70 | 23 | 2.0 | 4.0 | 0.10 | 5.02 | 0.00 | 83 | 1022.4 |
| 20260903070107 | 69 | 23 | 1.0 | 4.0 | 0.08 | 5.00 | 0.00 | 84 | 1022.5 |
| 20260903065609 | 69 | 23 | 3.0 | 5.0 | 0.08 | 4.96 | 0.00 | 85 | 1022.4 |
| 20260903065107 | 68 | 23 | 3.0 | 5.0 | 0.04 | 4.96 | 0.00 | 87 | 1022.4 |
| 20260903064607 | 67 | 23 | 1.0 | 4.0 | 0.04 | 4.96 | 0.00 | 87 | 1022.5 |
| 20260903064107 | 67 | 23 | 0.0 | 0.0 | 0.04 | 4.96 | 0.00 | 88 | 1022.4 |
| 20260903063607 | 66 | 23 | 0.0 | 0.0 | 0.04 | 4.94 | 0.00 | 89 | 1022.3 |
| 20260903062607 | 65 | 23 | 0.0 | 0.0 | 0.02 | 4.94 | 0.00 | 90 | 1022.2 |
| 20260903062108 | 64 | 23 | 0.0 | 0.0 | 0.02 | 4.94 | 0.00 | 89 | 1022.2 |
| 20260903061607 | 64 | 23 | 0.0 | 0.0 | 0.02 | 4.94 | 0.00 | 89 | 1022.1 |
| 20260903061108 | 63 | 23 | 0.0 | 0.0 | 0.02 | 4.94 | 0.00 | 89 | 1022.2 |
| 20260903060610 | 63 | 23 | 0.0 | 0.0 | 0.02 | 4.94 | 0.00 | 90 | 1022.3 |
| 20260903060108 | 62 | 23 | 0.0 | 0.0 | 0.02 | 4.94 | 0.00 | 90 | 1022.0 |
| 20260903055608 | 62 | 23 | 0.0 | 0.0 | 0.02 | 4.94 | 0.00 | 90 | 1022.1 |
| 20260903055108 | 61 | 23 | 0.0 | 0.0 | 0.02 | 4.94 | 0.00 | 90 | 1022.0 |
| 20260903054610 | 61 | 23 | 0.0 | 0.0 | 0.02 | 4.94 | 0.00 | 89 | 1022.3 |
| 20260903054108 | 60 | 23 | 0.0 | 0.0 | 0.02 | 4.94 | 0.00 | 89 | 1022.4 |
| 20260903053609 | 59 | 23 | 0.0 | 0.0 | 0.00 | 4.92 | 0.00 | 89 | 1022.2 |
| 20260903053108 | 59 | 23 | 0.0 | 0.0 | 0.00 | 4.92 | 0.00 | 89 | 1022.2 |
| 20260903052608 | 59 | 23 | 0.0 | 0.0 | 0.02 | 4.92 | 0.00 | 89 | 1022.0 |
| 20260903052109 | 58 | 23 | 0.0 | 0.0 | 0.02 | 4.92 | 0.00 | 89 | 1022.2 |
| 20260903051608 | 58 | 23 | 0.0 | 0.0 | 0.02 | 4.92 | 0.00 | 89 | 1022.2 |
| 20260903051108 | 58 | 23 | 0.0 | 0.0 | 0.02 | 4.92 | 0.00 | 89 | 1022.1 |
| 20260903050608 | 58 | 23 | 0.0 | 0.0 | 0.02 | 4.92 | 0.00 | 89 | 1021.9 |
| 20260903050109 | 58 | 45 | 0.0 | 0.0 | 0.02 | 4.92 | 0.00 | 88 | 1021.8 |
| 20260903045609 | 58 | 45 | 0.0 | 0.0 | 0.02 | 4.92 | 0.00 | 88 | 1021.9 |
| 20260903045108 | 58 | 45 | 0.0 | 0.0 | 0.04 | 4.92 | 0.00 | 88 | 1021.8 |
| 20260903044109 | 58 | 45 | 0.0 | 0.0 | 0.08 | 4.92 | 0.00 | 88 | 1021.7 |
| 20260903043609 | 58 | 45 | 0.0 | 0.0 | 0.08 | 4.92 | 0.00 | 88 | 1021.6 |
| 20260903043109 | 58 | 45 | 0.0 | 0.0 | 0.08 | 4.92 | 0.00 | 88 | 1021.6 |
| 20260903042609 | 59 | 45 | 0.0 | 0.0 | 0.06 | 4.90 | 0.00 | 88 | 1021.8 |
| 20260903042109 | 59 | 45 | 0.0 | 0.0 | 0.06 | 4.90 | 0.00 | 88 | 1021.6 |
| 20260903041109 | 59 | 45 | 0.0 | 0.0 | 0.06 | 4.90 | 0.00 | 88 | 1021.5 |
| 20260903040609 | 60 | 45 | 0.0 | 0.0 | 0.06 | 4.90 | 0.00 | 88 | 1021.3 |
| 20260903040109 | 60 | 45 | 0.0 | 0.0 | 0.06 | 4.90 | 0.00 | 88 | 1021.4 |
| 20260903034109 | 60 | 68 | 0.0 | 0.0 | 0.00 | 4.83 | 0.00 | 87 | 1021.2 |
| 20260903033109 | 60 | 68 | 0.0 | 0.0 | 0.00 | 4.83 | 0.00 | 87 | 1021.1 |
| 20260903032610 | 61 | 68 | 0.0 | 0.0 | 0.00 | 4.83 | 0.00 | 87 | 1021.1 |
| 20260903032109 | 61 | 68 | 0.0 | 0.0 | 0.00 | 4.83 | 0.00 | 87 | 1021.1 |
| 20260903031610 | 61 | 68 | 0.0 | 0.0 | 0.00 | 4.83 | 0.00 | 86 | 1021.1 |
| 20260903031110 | 61 | 68 | 0.0 | 0.0 | 0.00 | 4.83 | 0.00 | 86 | 1021.0 |
| 20260903030613 | 61 | 68 | 0.0 | 0.0 | 0.00 | 4.83 | 0.00 | 86 | 1021.1 |
| 20260903030110 | 61 | 68 | 0.0 | 0.0 | 0.00 | 4.83 | 0.00 | 86 | 1021.1 |
| 20260903025110 | 62 | 23 | 0.0 | 0.0 | 0.00 | 4.83 | 0.00 | 86 | 1021.4 |
| 20260903024610 | 62 | 23 | 0.0 | 0.0 | 0.00 | 4.83 | 0.00 | 85 | 1021.3 |
| 20260903024110 | 62 | 23 | 0.0 | 0.0 | 0.00 | 4.83 | 0.00 | 85 | 1021.4 |
| 20260903023110 | 63 | 23 | 0.0 | 0.0 | 0.00 | 4.83 | 0.00 | 86 | 1021.4 |
| 20260903022110 | 63 | 23 | 0.0 | 0.0 | 0.00 | 4.83 | 0.00 | 86 | 1021.4 |
| 20260903021610 | 63 | 23 | 0.0 | 0.0 | 0.00 | 4.83 | 0.00 | 86 | 1021.4 |
| 20260903020110 | 63 | 23 | 3.0 | 5.0 | 0.02 | 4.83 | 0.00 | 86 | 1021.2 |
| 20260903015610 | 63 | 23 | 2.0 | 5.0 | 0.02 | 4.83 | 0.00 | 86 | 1021.1 |
| 20260903015111 | 63 | 23 | 2.0 | 4.0 | 0.06 | 4.83 | 0.00 | 86 | 1021.0 |
| 20260903014610 | 63 | 23 | 2.0 | 4.0 | 0.06 | 4.83 | 0.00 | 86 | 1021.0 |
| 20260903014110 | 63 | 23 | 0.0 | 0.0 | 0.06 | 4.83 | 0.00 | 86 | 1021.1 |
| 20260903013611 | 63 | 23 | 0.0 | 0.0 | 0.08 | 4.83 | 0.00 | 86 | 1021.0 |
| 20260903013111 | 63 | 23 | 2.0 | 5.0 | 0.08 | 4.90 | 0.00 | 86 | 1021.0 |
| 20260903012611 | 63 | 23 | 4.0 | 5.0 | 0.10 | 4.90 | 0.00 | 87 | 1021.2 |
| 20260903011612 | 63 | 23 | 4.0 | 5.0 | 0.14 | 4.90 | 0.00 | 87 | 1021.0 |
| 20260903011111 | 63 | 23 | 3.0 | 4.0 | 0.16 | 4.90 | 0.00 | 87 | 1021.0 |
| 20260903010111 | 62 | 113 | 0.0 | 4.0 | 0.20 | 4.88 | 0.00 | 87 | 1021.0 |
| 20260903005613 | 62 | 113 | 0.0 | 0.0 | 0.16 | 4.83 | 0.00 | 86 | 1020.6 |